[[{"header":{"parameterUnit":"m.s-1","parameterCategory":1,"la1":30.2991,"la2":30.254,"lo1":-89.0895,"lo2":-89.0444,"dy":0.0017,"dx":0.0017,"nx":28,"ny":28,"refTime":"2024-12-02T03:00:00:Z","depth":0,"parameterNumber":2,"parameterNumberName":"U-component_of_WINDS"},"data":[0,0,0,0,0,0,0,0,0,0,0,0,0,0,0,0,0,0,0,0,0,0,0,0,0,0,0,0,0,0,0,0,0,0,0,0,0,0,0,0,0,0,0,0,0,0,0,0,0,0,0,0,0,0,0,0,0,0,-3.7776,-3.7777,0,-3.7854,-3.7855,-3.7856,-3.7766,-3.7763,-3.776,-3.7757,-3.7836,-3.7841,-3.7846,0,0,0,0,0,0,0,0,0,0,0,0,0,-3.7547,-3.7551,-3.7776,-3.7777,-3.7778,-3.7854,-3.7855,-3.7856,-3.7767,-3.7763,-3.7759,-3.7755,-3.7834,-3.784,-3.7846,0,0,0,0,0,0,0,0,0,0,0,0,0,-3.7638,-3.7553,-3.7776,-3.7743,-3.774,-3.7854,-3.7855,-3.7856,-3.7768,-3.7763,-3.7758,-3.7753,-3.7832,-3.7839,-3.7847,-3.7997,0,0,-3.7871,-3.7875,0,0,0,0,0,0,0,0,-3.7633,-3.7646,-3.7747,-3.7745,-3.7743,-3.7795,-3.7803,-3.7903,-3.7769,-3.7757,-3.7756,-3.7751,-3.7826,-3.7834,-3.786,-3.8,-3.8004,-3.7872,-3.7877,-3.788,-3.7882,0,0,0,0,0,0,0,-3.7627,-3.7642,-3.7807,-3.7748,-3.7746,-3.7723,-3.773,-3.7822,-3.7819,-3.7758,-3.7752,-3.7762,-3.7824,-3.7853,-3.7861,-3.8005,-3.7872,-3.7879,-3.7884,-3.7887,-3.8269,-3.8274,0,0,0,0,0,0,-3.7624,-3.7638,-3.7804,-3.7809,-3.7674,-3.7731,-3.7739,-3.7784,-3.7818,-3.7818,-3.7767,-3.7758,-3.7842,-3.7852,-3.7864,-3.8039,-3.788,-3.7887,-3.7892,-3.8264,-3.827,-3.8276,0,0,0,0,0,0,-3.762,-3.764,-3.7801,-3.7722,-3.7741,-3.7741,-3.7791,-3.7788,-3.7816,-3.7824,-3.7823,-3.7796,-3.7838,-3.7853,-3.7964,-3.804,-3.7891,-3.7898,-3.8257,-3.8266,-3.8273,-3.8392,0,0,0,0,0,0,-3.7614,-3.7639,-3.7697,-3.7724,-3.7745,-3.7901,-3.7796,-3.7793,-3.783,-3.7819,-3.7852,-3.7852,-3.7835,-3.7953,-3.7972,-3.8048,-3.7904,-3.825,-3.8261,-3.8271,-3.8381,-3.8403,-3.8422,0,0,0,0,0,-3.7606,-3.7727,-3.77,-3.772,-3.7817,-3.7906,-3.7918,-3.7896,-3.7837,-3.7894,-3.7899,-3.7851,-3.8029,-3.7965,-3.7985,-3.8066,-3.8245,-3.8258,-3.827,-3.8372,-3.8399,-3.8421,0,0,0,0,0,0,-3.7709,-3.773,-3.77,-3.7834,-3.7869,-3.7891,-3.7962,-3.7926,-3.7978,-3.7965,-3.7936,-3.7944,-3.8062,-3.8075,-3.8003,-3.8211,-3.8127,-3.8144,-3.8198,-3.8223,-3.8243,-3.8237,-3.7911,0,0,0,0,0,-3.7747,-3.7818,-3.7833,-3.7949,-3.7968,-3.7963,-3.8,-3.798,-3.8015,-3.8029,-3.8042,-3.8077,-3.814,-3.8183,-3.8242,-3.8383,-3.8387,-3.8448,-3.8469,-3.8485,-3.85,-3.8573,-3.8599,-3.8316,-3.8316,-3.8316,0,0,-3.7827,-3.7848,-3.7894,-3.7971,-3.7995,-3.8068,-3.7975,-3.8057,-3.811,-3.8041,-3.8146,-3.8158,-3.8194,-3.832,-3.8377,-3.8335,-3.8579,-3.8501,-3.8514,-3.852,-3.8588,-3.8615,-3.8639,-3.8325,-3.8323,-3.8322,0,0,-3.801,-3.8033,-3.8132,-3.8158,-3.8196,-3.8191,-3.8215,-3.8242,-3.8247,-3.8352,-3.8301,-3.8364,-3.8474,-3.8502,-3.853,-3.8722,-3.8679,-3.8742,-3.8848,-3.892,-3.8942,-3.8961,-3.9027,-3.9052,-3.8757,-3.8757,-3.8757,0,-3.8104,-3.8212,-3.8187,-3.8272,-3.8306,-3.8247,-3.8346,-3.8372,-3.8428,-3.8452,-3.8405,-3.8541,-3.8562,-3.8692,-3.8739,-3.8765,-3.879,-3.8737,-3.8941,-3.896,-3.8978,-3.9041,-3.9066,-3.8764,-3.8763,-3.8763,-3.8762,0,-3.8325,-3.8401,-3.8476,-3.8531,-3.8573,-3.8665,-3.8652,-3.8699,-3.8675,-3.8675,-3.8781,-3.8804,-3.8866,-3.8895,-3.8874,-3.9023,-3.8995,-3.8945,-3.886,-3.9013,-3.9071,-3.9095,-3.8774,-3.8772,-3.877,-3.8768,0,0,-3.8575,-3.8613,-3.8641,-3.8664,-3.8701,-3.8759,-3.8847,-3.8907,-3.8946,-3.8987,-3.9058,-3.9153,-3.9106,-3.9138,-3.9118,-3.9182,-3.9329,-3.9123,-3.9123,-3.9159,-3.9492,-3.9528,-3.9556,-3.9301,-3.9306,-3.931,-3.9488,0,-3.8756,-3.8909,-3.8888,-3.9034,-3.9102,-3.9047,-3.9123,-3.9153,-3.9155,-3.9213,-3.9215,-3.9281,-3.9215,-3.9234,-3.9294,-3.9298,-3.9395,-3.9285,-3.9366,-3.9369,-3.9357,-3.9587,-3.9626,-3.9794,-3.9511,-3.9515,-3.9518,0,-3.8988,-3.9036,-3.9189,-3.9213,-3.9241,-3.931,-3.9362,-3.9419,-3.9451,-3.9448,-3.9484,-3.9452,-3.9539,-3.9454,-3.9571,-3.9497,-3.9529,-3.9536,-3.9542,-3.9547,-3.9452,-3.9597,-3.9847,-3.9871,-3.9554,-3.9551,-3.9548,0,-3.9152,-3.9255,-3.9359,-3.938,-3.9412,-3.9462,-3.9477,-3.9505,-3.9542,-3.9587,-3.961,-3.9666,-3.9696,-3.9739,-3.9723,-3.9663,-3.9843,-3.9757,-3.9841,-3.9842,-3.988,-3.9878,-4.0137,-3.9905,-3.9904,-3.9904,-3.9903,0,-3.9355,-3.945,-3.9432,-3.9496,-3.9601,-3.9575,-3.9679,-3.9688,-3.9713,-3.9776,-3.9732,-3.9792,-3.9768,-3.9827,-3.9815,-3.9913,-3.9927,-3.9926,-3.9921,-3.9929,-3.9929,-3.9948,-3.9935,-3.991,-3.9909,-3.9908,-3.9906,0,-3.9555,-3.9547,-3.9657,-3.9678,-3.9685,-3.9761,-3.9778,-3.9837,-3.9835,-3.9916,-3.9934,-3.9931,-3.9997,-3.9986,-4.006,-4.0051,-4.0173,-4.0155,-4.0162,-4.0157,-4.0241,-4.0232,-4.052,-4.0555,-4.0302,-4.0305,-4.0307,0,-3.9685,-3.9756,-3.9785,-3.9824,-3.9843,-3.9908,-3.9944,-3.9922,-3.9962,-4.0004,-4.0058,-4.0121,-4.0169,-4.0278,-4.0282,-4.0337,-4.0319,-4.0416,-4.0327,-4.0331,-4.0317,-4.0313,-4.0319,-4.0433,-4.0436,-4.0438,-4.044,0,-3.9915,-3.9907,-3.9962,-4.0016,-4.0061,-4.0102,-4.0139,-4.0174,-4.0155,-4.0202,-4.0269,-4.0307,-4.0382,-4.0443,-4.0495,-4.051,-4.0471,-4.0468,-4.049,-4.0498,-4.0498,-4.0496,-4.0208,-4.0461,-4.0459,-4.0458,-4.0456,-4.0456,-4.0082,-4.0142,-4.0171,-4.0233,-4.0258,-4.0294,-4.035,-4.0354,-4.041,-4.0469,-4.0453,-4.0529,-4.0557,-4.0623,-4.0643,-4.0701,-4.0665,-4.0698,-4.0706,-4.0713,-4.0722,-4.049,-4.0711,-4.071,-4.071,-4.0709,-4.0709,0,-4.0307,-4.0323,-4.038,-4.0433,-4.0482,-4.0442,-4.048,-4.0523,-4.0591,-4.0621,-4.067,-4.0746,-4.0805,-4.0814,-4.087,-4.0914,-4.0898,-4.093,-4.0925,-4.0929,-4.0753,-4.0727,-4.0942,-4.0942,-4.0942,-4.0942,-4.0942,-4.0942,-4.043,-4.0529,-4.0524,-4.0635,-4.0649,-4.0723,-4.0748,-4.078,-4.0804,-4.0891,-4.094,-4.0945,-4.0966,-4.1023,-4.1075,-4.1076,-4.1097,-4.1136,-4.1129,-4.0965,-4.0941,-4.0919,-4.0895,-4.1141,-4.1141,-4.13,-4.1301,-4.1303]},{"header":{"parameterUnit":"m.s-1","parameterCategory":1,"la1":30.2991,"la2":30.254,"lo1":-89.0895,"lo2":-89.0444,"dy":0.0017,"dx":0.0017,"nx":28,"ny":28,"refTime":"2024-12-02T03:00:00:Z","depth":0,"parameterNumber":3,"parameterNumberName":"V-component_of_WINDS"},"data":[0,0,0,0,0,0,0,0,0,0,0,0,0,0,0,0,0,0,0,0,0,0,0,0,0,0,0,0,0,0,0,0,0,0,0,0,0,0,0,0,0,0,0,0,0,0,0,0,0,0,0,0,0,0,0,0,0,0,-3.3539,-3.354,0,-3.3612,-3.3613,-3.3614,-3.358,-3.3578,-3.3576,-3.3574,-3.3647,-3.365,-3.3654,0,0,0,0,0,0,0,0,0,0,0,0,0,-3.3367,-3.3371,-3.3539,-3.354,-3.3541,-3.3612,-3.3613,-3.3614,-3.358,-3.3578,-3.3576,-3.3573,-3.3646,-3.365,-3.3654,0,0,0,0,0,0,0,0,0,0,0,0,0,-3.3441,-3.3372,-3.3539,-3.3533,-3.3533,-3.3612,-3.3613,-3.3614,-3.3581,-3.3578,-3.3575,-3.3572,-3.3644,-3.3649,-3.3655,-3.3744,0,0,-3.3671,-3.3674,0,0,0,0,0,0,0,0,-3.3437,-3.3448,-3.3533,-3.3533,-3.3534,-3.3584,-3.3579,-3.3658,-3.3581,-3.3562,-3.3574,-3.3571,-3.3628,-3.3635,-3.3654,-3.3747,-3.375,-3.3672,-3.3675,-3.3678,-3.3679,0,0,0,0,0,0,0,-3.3432,-3.3444,-3.3568,-3.3534,-3.3535,-3.3525,-3.3533,-3.3594,-3.361,-3.3564,-3.3562,-3.3571,-3.3628,-3.3649,-3.3656,-3.3751,-3.3672,-3.3677,-3.368,-3.3682,-3.3918,-3.3921,0,0,0,0,0,0,-3.3427,-3.344,-3.3566,-3.357,-3.3478,-3.353,-3.3539,-3.3571,-3.3609,-3.3612,-3.3573,-3.3569,-3.3641,-3.3649,-3.3658,-3.3763,-3.3678,-3.3683,-3.3686,-3.3915,-3.3919,-3.3922,0,0,0,0,0,0,-3.3424,-3.3439,-3.3563,-3.3505,-3.352,-3.3536,-3.3572,-3.3574,-3.3595,-3.3616,-3.3618,-3.3592,-3.3639,-3.365,-3.3722,-3.3765,-3.3685,-3.369,-3.3911,-3.3916,-3.392,-3.3975,0,0,0,0,0,0,-3.3419,-3.3438,-3.3473,-3.3506,-3.3523,-3.3627,-3.3575,-3.3577,-3.3605,-3.36,-3.3635,-3.3638,-3.3638,-3.3714,-3.3728,-3.3771,-3.3694,-3.3908,-3.3914,-3.3919,-3.3969,-3.398,-3.399,0,0,0,0,0,-3.3413,-3.3485,-3.3475,-3.349,-3.3567,-3.363,-3.3639,-3.3639,-3.3608,-3.3643,-3.3656,-3.3636,-3.3758,-3.3722,-3.3737,-3.3782,-3.3905,-3.3912,-3.3918,-3.3964,-3.3978,-3.399,0,0,0,0,0,0,-3.3457,-3.349,-3.3478,-3.3564,-3.3594,-3.3624,-3.3667,-3.3654,-3.3693,-3.3687,-3.3684,-3.3692,-3.3766,-3.3782,-3.374,-3.3869,-3.3827,-3.3837,-3.3857,-3.387,-3.388,-3.3875,-3.3699,0,0,0,0,0,-3.3476,-3.3525,-3.3551,-3.3624,-3.3639,-3.3651,-3.3678,-3.3675,-3.3706,-3.3719,-3.3737,-3.3768,-3.3812,-3.3842,-3.3885,-3.3971,-3.3977,-3.401,-3.402,-3.4029,-3.4037,-3.4082,-3.4096,-3.3944,-3.3944,-3.3944,0,0,-3.3517,-3.3541,-3.3572,-3.3633,-3.3656,-3.3706,-3.3662,-3.3717,-3.3753,-3.3727,-3.3796,-3.381,-3.3844,-3.3923,-3.3958,-3.3938,-3.4081,-3.4037,-3.4044,-3.4048,-3.409,-3.4105,-3.4117,-3.3948,-3.3948,-3.3947,0,0,-3.3616,-3.364,-3.3703,-3.3727,-3.3762,-3.3769,-3.3784,-3.3816,-3.3824,-3.3894,-3.3875,-3.3917,-3.3995,-3.4019,-3.4042,-3.4148,-3.4131,-3.4162,-3.4217,-3.4261,-3.4273,-3.4283,-3.432,-3.4333,-3.4171,-3.4171,-3.4171,0,-3.3662,-3.3737,-3.3736,-3.3792,-3.3818,-3.3797,-3.3859,-3.3882,-3.393,-3.3948,-3.3924,-3.4021,-3.4042,-3.4125,-3.4151,-3.4171,-3.4186,-3.4158,-3.4271,-3.4282,-3.4291,-3.4326,-3.434,-3.4174,-3.4174,-3.4173,-3.4173,0,-3.3791,-3.3843,-3.3889,-3.3935,-3.3967,-3.4026,-3.4032,-3.4064,-3.4058,-3.4066,-3.4136,-3.416,-3.4207,-3.4226,-3.4221,-3.4309,-3.4294,-3.4271,-3.4228,-3.4309,-3.4342,-3.4355,-3.4179,-3.4178,-3.4177,-3.4176,0,0,-3.392,-3.3965,-3.3981,-3.4001,-3.4039,-3.4078,-3.4135,-3.4181,-3.4207,-3.4241,-3.4287,-3.4353,-3.4331,-3.4356,-3.4353,-3.4392,-3.4473,-3.4364,-3.4364,-3.4382,-3.4568,-3.4585,-3.46,-3.4462,-3.4464,-3.4466,-3.4565,0,-3.4021,-3.4121,-3.4121,-3.4213,-3.426,-3.424,-3.4289,-3.4316,-3.4326,-3.4366,-3.4376,-3.4422,-3.4391,-3.4406,-3.4443,-3.4455,-3.451,-3.4448,-3.4503,-3.4505,-3.4495,-3.4618,-3.4636,-3.4728,-3.4578,-3.458,-3.4582,0,-3.4152,-3.419,-3.4286,-3.4315,-3.4335,-3.4379,-3.442,-3.4459,-3.4489,-3.4493,-3.4521,-3.4512,-3.4568,-3.4524,-3.46,-3.4558,-3.458,-3.4589,-3.4593,-3.4597,-3.4548,-3.4624,-3.4757,-3.4771,-3.4602,-3.46,-3.4599,0,-3.4235,-3.4309,-3.4376,-3.4394,-3.443,-3.4461,-3.4478,-3.4505,-3.4532,-3.4567,-3.4584,-3.4626,-3.4648,-3.468,-3.4681,-3.4649,-3.4758,-3.4714,-3.4761,-3.4761,-3.4784,-3.4783,-3.4922,-3.4801,-3.4801,-3.4801,-3.48,0,-3.4347,-3.4406,-3.4414,-3.4455,-3.452,-3.4519,-3.4583,-3.4596,-3.4621,-3.4663,-3.4648,-3.4688,-3.4688,-3.4728,-3.473,-3.4791,-3.4802,-3.4806,-3.4805,-3.4807,-3.4806,-3.4821,-3.4814,-3.4804,-3.4803,-3.4803,-3.4802,0,-3.445,-3.4457,-3.4529,-3.4557,-3.4565,-3.4612,-3.4635,-3.4673,-3.4681,-3.4734,-3.4747,-3.4759,-3.4805,-3.481,-3.4864,-3.4864,-3.4939,-3.4932,-3.4929,-3.4927,-3.4973,-3.4968,-3.5126,-3.5146,-3.5013,-3.5015,-3.5016,0,-3.452,-3.4565,-3.4598,-3.4625,-3.4643,-3.4688,-3.4715,-3.4715,-3.4743,-3.478,-3.4813,-3.4858,-3.4894,-3.4969,-3.4982,-3.5022,-3.5016,-3.5068,-3.5021,-3.5021,-3.5014,-3.5011,-3.5015,-3.5077,-3.5078,-3.5079,-3.508,0,-3.4644,-3.4645,-3.4685,-3.4726,-3.4759,-3.4791,-3.4822,-3.4845,-3.4848,-3.4881,-3.4928,-3.4956,-3.501,-3.5054,-3.5094,-3.5109,-3.5095,-3.5095,-3.5107,-3.5109,-3.5104,-3.5106,-3.4952,-3.5091,-3.509,-3.5089,-3.5088,-3.5088,-3.4732,-3.477,-3.4799,-3.4843,-3.4866,-3.4894,-3.4931,-3.4943,-3.4983,-3.5027,-3.5025,-3.5076,-3.5103,-3.5155,-3.5173,-3.5213,-3.5195,-3.5214,-3.5219,-3.5223,-3.5227,-3.5099,-3.522,-3.522,-3.522,-3.522,-3.5219,0,-3.4853,-3.487,-3.4911,-3.4954,-3.4988,-3.4972,-3.5005,-3.5034,-3.508,-3.5107,-3.5142,-3.5196,-3.5238,-3.5254,-3.5295,-3.5323,-3.5318,-3.5334,-3.5331,-3.5335,-3.5241,-3.5226,-3.5338,-3.5338,-3.5338,-3.5338,-3.5338,-3.5338,-3.492,-3.4984,-3.4988,-3.5062,-3.5079,-3.513,-3.5149,-3.5174,-3.5196,-3.5256,-3.5291,-3.5301,-3.5323,-3.5366,-3.5403,-3.5407,-3.5422,-3.5441,-3.5441,-3.5354,-3.5342,-3.533,-3.5315,-3.5444,-3.5445,-3.5531,-3.5532,-3.5533]}]]